| time (UTC) | temp F | wind direction | speed MPH | gust MPH | rain 1hr in | rain 24hr in | rain mn in | humidity % | barometer mb |
| 20260508174600 | 68 | 170 | 1.0 | 9.0 | 0.00 | 0.03 | 0.01 | 33 | 959.5 |
| 20260508173029 | 68 | 329 | 2.0 | 13.0 | 0.00 | 0.03 | 0.01 | 35 | 959.8 |
| 20260508171535 | 67 | 321 | 1.0 | 4.0 | 0.00 | 0.03 | 0.01 | 37 | 959.9 |
| 20260508170026 | 66 | 142 | 0.0 | 7.0 | 0.00 | 0.04 | 0.01 | 38 | 960.0 |
| 20260508164526 | 66 | 88 | 3.0 | 7.0 | 0.00 | 0.04 | 0.01 | 36 | 960.4 |
| 20260508163024 | 66 | 327 | 3.0 | 8.0 | 0.00 | 0.04 | 0.01 | 37 | 960.4 |
| 20260508161539 | 65 | 136 | 2.0 | 7.0 | 0.00 | 0.04 | 0.01 | 35 | 960.7 |
| 20260508160022 | 65 | 142 | 3.0 | 11.0 | 0.00 | 0.07 | 0.01 | 36 | 961.0 |
| 20260508154521 | 65 | 122 | 2.0 | 6.0 | 0.00 | 0.07 | 0.01 | 37 | 961.1 |
| 20260508153034 | 64 | 355 | 2.0 | 4.0 | 0.00 | 0.07 | 0.01 | 38 | 961.2 |
| 20260508151518 | 64 | 223 | 0.0 | 7.0 | 0.00 | 0.07 | 0.01 | 37 | 961.2 |
| 20260508150015 | 64 | 91 | 0.0 | 5.0 | 0.00 | 0.09 | 0.01 | 39 | 961.1 |
| 20260508144515 | 63 | 126 | 0.0 | 4.0 | 0.00 | 0.09 | 0.01 | 39 | 961.2 |
| 20260508143014 | 63 | 129 | 2.0 | 5.0 | 0.00 | 0.09 | 0.01 | 39 | 961.3 |
| 20260508141514 | 63 | 97 | 2.0 | 7.0 | 0.00 | 0.09 | 0.01 | 40 | 961.4 |
| 20260508140011 | 62 | 111 | 1.0 | 7.0 | 0.00 | 0.12 | 0.01 | 41 | 961.5 |
| 20260508134511 | 61 | 131 | 2.0 | 7.0 | 0.00 | 0.12 | 0.01 | 42 | 961.5 |
| 20260508133008 | 60 | 126 | 2.0 | 5.0 | 0.00 | 0.12 | 0.01 | 40 | 961.4 |
| 20260508131507 | 59 | 107 | 0.0 | 0.0 | 0.00 | 0.12 | 0.01 | 44 | 961.3 |
| 20260508130004 | 58 | 63 | 0.0 | 0.0 | 0.00 | 0.15 | 0.01 | 44 | 961.3 |
| 20260508124504 | 56 | 355 | 0.0 | 0.0 | 0.00 | 0.15 | 0.01 | 45 | 961.2 |
| 20260508123100 | 54 | 355 | 0.0 | 0.0 | 0.00 | 0.15 | 0.01 | 45 | 961.0 |
| 20260508121600 | 52 | 292 | 0.0 | 0.0 | 0.00 | 0.15 | 0.01 | 36 | 960.9 |
| 20260508120112 | 50 | 292 | 0.0 | 0.0 | 0.00 | 0.19 | 0.01 | 46 | 960.7 |
| 20260508114601 | 49 | 292 | 0.0 | 0.0 | 0.00 | 0.19 | 0.01 | 52 | 960.6 |
| 20260508113053 | 48 | 292 | 0.0 | 0.0 | 0.00 | 0.19 | 0.01 | 45 | 960.1 |
| 20260508111547 | 47 | 292 | 0.0 | 2.0 | 0.00 | 0.19 | 0.01 | 38 | 959.9 |
| 20260508110048 | 47 | 292 | 0.0 | 0.0 | 0.00 | 0.22 | 0.01 | 30 | 959.8 |
| 20260508104541 | 47 | 292 | 0.0 | 0.0 | 0.00 | 0.22 | 0.01 | 25 | 959.6 |
| 20260508103045 | 47 | 313 | 0.0 | 0.0 | 0.00 | 0.22 | 0.01 | 24 | 959.2 |
| 20260508101536 | 47 | 313 | 0.0 | 0.0 | 0.00 | 0.22 | 0.01 | 23 | 959.0 |
| 20260508100048 | 48 | 313 | 0.0 | 2.0 | 0.00 | 0.26 | 0.01 | 21 | 958.8 |
| 20260508094531 | 48 | 313 | 0.0 | 2.0 | 0.00 | 0.26 | 0.01 | 15 | 958.8 |
| 20260508093035 | 48 | 313 | 0.0 | 2.0 | 0.00 | 0.26 | 0.01 | 14 | 958.8 |
| 20260508091528 | 49 | 313 | 0.0 | 0.0 | 0.00 | 0.26 | 0.01 | 13 | 958.7 |
| 20260508090026 | 49 | 313 | 0.0 | 0.0 | 0.00 | 0.32 | 0.01 | 17 | 958.5 |
| 20260508084519 | 49 | 313 | 0.0 | 1.0 | 0.00 | 0.32 | 0.01 | 22 | 958.3 |
| 20260508083018 | 49 | 313 | 0.0 | 0.0 | 0.00 | 0.32 | 0.01 | 34 | 958.4 |
| 20260508081515 | 49 | 313 | 0.0 | 0.0 | 0.00 | 0.32 | 0.01 | 39 | 958.2 |
| 20260508080012 | 49 | 313 | 1.0 | 2.0 | 0.00 | 0.40 | 0.01 | 42 | 958.2 |
| 20260508074541 | 50 | 313 | 0.0 | 2.0 | 0.00 | 0.40 | 0.01 | 45 | 958.2 |
| 20260508073044 | 50 | 313 | 0.0 | 3.0 | 0.00 | 0.40 | 0.01 | 48 | 957.9 |
| 20260508071538 | 50 | 313 | 0.0 | 1.0 | 0.00 | 0.40 | 0.01 | 51 | 957.8 |
| 20260508070032 | 51 | 313 | 1.0 | 3.0 | 0.00 | 0.47 | 0.01 | 53 | 957.7 |
| 20260508064536 | 51 | 311 | 0.0 | 2.0 | 0.00 | 0.47 | 0.01 | 57 | 957.6 |
| 20260508063030 | 52 | 311 | 0.0 | 1.0 | 0.00 | 0.47 | 0.01 | 57 | 957.6 |
| 20260508061604 | 52 | 311 | 0.0 | 2.0 | 0.00 | 0.47 | 0.01 | 57 | 957.7 |
| 20260508060111 | 53 | 310 | 0.0 | 3.0 | 0.00 | 0.56 | 0.01 | 58 | 957.7 |
| 20260508054603 | 53 | 11 | 0.0 | 3.0 | 0.00 | 0.56 | 0.01 | 57 | 957.8 |
| 20260508053031 | 54 | 25 | 0.0 | 0.0 | 0.00 | 0.56 | 0.01 | 56 | 957.7 |
| 20260508051516 | 54 | 316 | 1.0 | 3.0 | 0.00 | 0.56 | 0.01 | 57 | 957.8 |
| 20260508050014 | 55 | 316 | 1.0 | 3.0 | 0.00 | 0.59 | 0.01 | 57 | 957.8 |
| 20260508044511 | 56 | 317 | 0.0 | 0.0 | 0.00 | 0.59 | 0.01 | 55 | 957.5 |
| 20260508043009 | 56 | 317 | 0.0 | 0.0 | 0.00 | 0.59 | 0.01 | 54 | 957.5 |
| 20260508041537 | 57 | 317 | 0.0 | 0.0 | 0.00 | 0.59 | 0.01 | 52 | 957.3 |
| 20260508040035 | 58 | 317 | 0.0 | 2.0 | 0.00 | 0.67 | 0.01 | 51 | 957.6 |
| 20260508034536 | 59 | 315 | 1.0 | 6.0 | 0.00 | 0.67 | 0.01 | 48 | 957.4 |
| 20260508033031 | 60 | 309 | 2.0 | 5.0 | 0.00 | 0.67 | 0.01 | 48 | 957.4 |
| 20260508031523 | 60 | 360 | 1.0 | 3.0 | 0.00 | 0.67 | 0.01 | 47 | 957.4 |
| 20260508030022 | 60 | 360 | 2.0 | 5.0 | 0.00 | 0.83 | 0.01 | 46 | 957.4 |
| 20260508024517 | 61 | 20 | 3.0 | 6.0 | 0.00 | 0.83 | 0.01 | 45 | 957.2 |
| 20260508023015 | 61 | 343 | 2.0 | 5.0 | 0.00 | 0.83 | 0.01 | 45 | 957.1 |
| 20260508021513 | 61 | 360 | 3.0 | 6.0 | 0.00 | 0.83 | 0.01 | 45 | 956.8 |
| 20260508020010 | 62 | 348 | 2.0 | 5.0 | 0.00 | 1.04 | 0.01 | 44 | 956.6 |
| 20260508014506 | 62 | 338 | 4.0 | 8.0 | 0.00 | 1.04 | 0.01 | 44 | 956.4 |
| 20260508013003 | 62 | 24 | 4.0 | 8.0 | 0.00 | 1.04 | 0.01 | 43 | 955.9 |
| 20260508011501 | 63 | 23 | 6.0 | 14.0 | 0.00 | 1.04 | 0.01 | 41 | 955.8 |
| 20260508004551 | 64 | 24 | 4.0 | 9.0 | 0.00 | 1.23 | 0.01 | 46 | 955.2 |
| 20260508003050 | 64 | 10 | 5.0 | 10.0 | 0.00 | 1.23 | 0.01 | 45 | 954.9 |
| 20260508001546 | 65 | 30 | 8.0 | 15.0 | 0.00 | 1.23 | 0.01 | 44 | 954.5 |
| 20260508000041 | 66 | 24 | 9.0 | 15.0 | 0.00 | 1.43 | 0.01 | 44 | 954.2 |
| 20260507234541 | 67 | 5 | 5.0 | 12.0 | 0.00 | 1.43 | 0.01 | 45 | 954.1 |
| 20260507233032 | 68 | 31 | 4.0 | 10.0 | 0.00 | 1.43 | 0.01 | 54 | 953.7 |
| 20260507231528 | 69 | 61 | 3.0 | 10.0 | 0.00 | 1.43 | 0.01 | 53 | 953.4 |
| 20260507230031 | 72 | 22 | 6.0 | 11.0 | 0.00 | 1.43 | 0.01 | 43 | 952.9 |
| 20260507224519 | 72 | 350 | 5.0 | 11.0 | 0.00 | 1.43 | 0.01 | 43 | 952.5 |
| 20260507223013 | 73 | 29 | 5.0 | 10.0 | 0.00 | 1.43 | 0.01 | 43 | 952.2 |
| 20260507221512 | 75 | 15 | 4.0 | 14.0 | 0.00 | 1.43 | 0.01 | 42 | 951.8 |
| 20260507220011 | 77 | 309 | 4.0 | 11.0 | 0.00 | 1.43 | 0.01 | 46 | 951.5 |
| 20260507214518 | 76 | 269 | 1.0 | 4.0 | 0.00 | 1.43 | 0.01 | 46 | 951.3 |
| 20260507213040 | 77 | 297 | 2.0 | 6.0 | 0.00 | 1.43 | 0.01 | 45 | 951.3 |
| 20260507211543 | 77 | 277 | 3.0 | 8.0 | 0.00 | 1.43 | 0.01 | 44 | 951.3 |
| 20260507210009 | 77 | 251 | 4.0 | 9.0 | 0.00 | 1.43 | 0.01 | 45 | 951.4 |
| 20260507204507 | 76 | 224 | 2.0 | 6.0 | 0.00 | 1.43 | 0.01 | 46 | 951.3 |
| 20260507203005 | 76 | 292 | 2.0 | 12.0 | 0.00 | 1.43 | 0.01 | 46 | 951.4 |
| 20260507201504 | 77 | 163 | 5.0 | 12.0 | 0.00 | 1.43 | 0.01 | 44 | 951.3 |
| 20260507200002 | 77 | 232 | 4.0 | 9.0 | 0.00 | 1.43 | 0.01 | 44 | 951.4 |
| 20260507194601 | 77 | 242 | 4.0 | 8.0 | 0.01 | 1.43 | 0.01 | 41 | 951.4 |
| 20260507193054 | 78 | 225 | 4.0 | 9.0 | 0.01 | 1.43 | 0.01 | 26 | 951.5 |
| 20260507191554 | 77 | 272 | 5.0 | 9.0 | 0.01 | 1.43 | 0.01 | 20 | 952.1 |
| 20260507190051 | 76 | 236 | 4.0 | 10.0 | 0.01 | 1.44 | 0.01 | 23 | 952.1 |
| 20260507184547 | 75 | 211 | 4.0 | 8.0 | 0.00 | 1.43 | 0.00 | 23 | 952.2 |
| 20260507183033 | 75 | 220 | 4.0 | 7.0 | 0.01 | 1.43 | 0.00 | 26 | 952.1 |
| 20260507181512 | 75 | 233 | 2.0 | 8.0 | 0.01 | 1.43 | 0.00 | 28 | 952.3 |
| 20260507180006 | 74 | 244 | 4.0 | 8.0 | 0.02 | 1.50 | 1.43 | 29 | 952.2 |